Location: Newark
(35.6799°N, 139.7636°E)
Time: 00:01:48
(UTC+00:00)

Courier 1B - Pass Details

Date: 13 December 2019
Orbit: 962 x 1209 km, 28.3° (Epoch: 21 January)

Event Time Altitude Azimuth Distance (km) Brightness Sun altitude
Rises 10:12:36 0° 231° (SW) 3,782 11.4 -32.5°
Reaches altitude 10° 10:15:32 10° 222° (SW) 2,869 10.4 -33.1°
Enters shadow 10:20:12 30° 183° (S) 1,846 8.9 -34.1°
